SB KEPS @ AMSAT $ORB11314.N 2Line Orbital Elements 11314.AMSAT
HR AMSAT ORBITAL ELEMENTS FOR AMATEUR SATELLITES IN NASA FORMAT FROM WA5QGD FORT WORTH,TX November 10, 2011 Send Subscribe/unsubscribe to KEPS at http://www.amsat.org/mailman/listinfo/keps BID: ORB11314.N
DECODE 2-LINE ELSETS WITH THE FOLLOWING KEY: 1 AAAAAU 00 0 0 BBBBB.BBBBBBBB .CCCCCCCC 00000-0 00000-0 0 DDDZ 2 AAAAA EEE.EEEE FFF.FFFF GGGGGGG HHH.HHHH III.IIII JJ.JJJJJJJJKKKKKZ KEY: A-CATALOGNUM B-EPOCHTIME C-DECAY D-ELSETNUM E-INCLINATION F-RAAN G-ECCENTRICITY H-ARGPERIGEE I-MNANOM J-MNMOTION K-ORBITNUM Z-CHECKSUM
TO ALL RADIO AMATEURS BT
AO-07 1 07530U 74089B 11314.59996988 -.00000027 00000-0 10000-3 0 2263 2 07530 101.3973 315.3818 0012061 353.2129 006.8775 12.53585222692538 FO-29 1 24278U 96046B 11313.96041704 -.00000025 00000-0 13076-4 0 07153 2 24278 098.5689 078.6041 0349750 239.5346 117.0817 13.52968529752173 SO-33 1 25509U 98061B 11313.81028079 .00001251 00000-0 23958-3 0 00977 2 25509 031.4296 140.6292 0352831 075.2164 288.7272 14.28506831681110 RS-22 1 27939U 03042A 11314.72643660 .00001278 00000-0 25370-3 0 7988 2 27939 097.8268 161.5920 0012555 238.9533 121.0440 14.63737406433774 VO-52 1 28650U 05017B 11313.78118464 .00002097 00000-0 26663-3 0 09468 2 28650 097.6264 350.2802 0027813 046.0192 314.3320 14.82359105352318 SO-67 1 35870U 09049F 11314.72730932 .00007617 00000-0 33905-3 0 3941 2 35870 097.2643 353.1168 0001323 174.8415 323.8939 15.21737451119219 HO-68 1 36122U 09072B 11314.78170848 -.00000044 00000-0 00000 0 0 9117 2 36122 100.3969 013.2513 0007168 251.2654 108.7672 13.16289829 91523 UO-11 1 14781U 84021B 11314.71102449 .00001190 00000-0 16365-3 0 7021 2 14781 097.9874 010.8151 0009885 029.1092 331.0667 14.80138830487467 AO-16 1 20439U 90005D 11313.85231498 .00000339 00000-0 14224-3 0 03323 2 20439 098.4023 258.7242 0011871 091.1432 269.1111 14.31967964138467 LO-19 1 20442U 90005G 11313.90908713 .00000384 00000-0 15812-3 0 2439 2 20442 098.3670 262.5813 0012829 084.6418 275.6232 14.32190966138658 AO-27 1 22825U 93061C 11313.89284505 .00000231 00000-0 10767-3 0 09718 2 22825 098.5474 255.4480 0008183 201.0287 159.0557 14.29387994945002 IO-26 1 22826U 93061D 11313.86543364 .00000304 00000-0 13551-3 0 07136 2 22826 098.5419 255.8511 0008382 197.5330 162.5561 14.29654668945122 GO-32 1 25397U 98043D 11313.65116435 .00000161 00000-0 89189-4 0 06275 2 25397 098.3394 298.5314 0001190 166.0041 194.1156 14.23233054692657 NO-44 1 26931U 01043C 11313.55088445 .00000504 00000-0 22830-3 0 08948 2 26931 067.0545 328.9561 0004884 264.6054 095.4501 14.29709916527708 SO-50 1 27607U 02058C 11313.81123432 .00002237 00000-0 35853-3 0 06112 2 27607 064.5580 245.1037 0082878 291.3098 067.9185 14.71969041477522 CO-55 1 27844U 03031E 11313.59528328 .00000454 00000-0 22982-3 0 2399 2 27844 098.7071 320.1947 0009962 135.4082 224.7902 14.20885424433569 CO-57 1 27848U 03031J 11313.56158839 .00000398 00000-0 20487-3 0 01862 2 27848 098.7134 319.4018 0010049 140.5061 219.6881 14.20655772433509 AO-51 1 28375U 04025K 11313.95036273 .00000498 00000-0 16200-3 0 01175 2 28375 098.1166 284.8771 0084402 348.9239 011.0133 14.40823423387054 CP3 1 31129U 07012N 11313.70353869 .00001586 00000-0 37128-3 0 00160 2 31129 097.8940 329.4603 0103014 088.7607 272.5398 14.52667886241968 CO-65 1 32785U 08021C 11313.90451367 .00002674 00000-0 34016-3 0 01482 2 32785 097.8343 014.8898 0015983 062.9087 297.3739 14.82331921191125 PRISM 1 33493U 09002B 11314.88123807 .00005781 00000-0 72627-3 0 1350 2 33493 098.1431 085.8481 0018695 287.3273 072.5943 14.82400666151245 SOHLA-1 1 33496U 09002E 11314.90692727 .00001142 00000-0 19973-3 0 5668 2 33496 098.0917 063.3537 0007182 024.6143 335.5403 14.69740553150032 TISAT-1 1 36799U 10035E 11314.84365342 .00003800 00000-0 49627-3 0 4052 2 36799 098.0883 024.4560 0015567 159.4640 200.7222 14.81020621 72016 STUDSAT 1 36801U 10035G 11313.94313819 .00009668 00000-0 12284-2 0 03110 2 36801 098.0934 023.5481 0013731 151.8656 208.3303 14.81788622071872 OOREOS 1 37224U 10062C 11283.12196780 .00000955 00000-0 14226-3 0 03021 2 37224 071.9656 145.3580 0018647 057.9354 302.3616 14.77183931047847 FO-69 1 37227U 0 11314.38646024 .00001523 00000-0 22471-3 0 00232 2 37227 071.9708 076.8763 0015586 004.7578 355.3800 14.76751597003647 NANOSALD 1 37361U 0 11242.25215765 .00180112 00000-0 75811-2 0 03512 2 37361 071.9735 221.4469 0025730 245.3422 114.7284 15.22200108033319 FO-70 1 37380U 0 11314.35569910 .00001370 00000-0 20400-3 0 00215 2 37380 071.9725 077.2302 0017266 001.0504 359.0709 14.76511729003534 NOAA-10 1 16969U 86073A 11313.93443314 .00000123 00000-0 67591-4 0 07047 2 16969 098.6083 341.6481 0012409 155.6906 204.4863 14.27494825308444 NOAA-11 1 19531U 88089A 11313.80229277 .00000143 00000-0 96355-4 0 06939 2 19531 098.7475 038.4706 0011534 129.4122 230.8103 14.14935063193347 NOAA-12 1 21263U 91032A 11313.92664436 .00000134 00000-0 75577-4 0 02084 2 21263 098.7452 331.4604 0014496 118.8357 241.4279 14.25451806065173 MET-3/5 1 21655U 91056A 11313.91737714 .00000051 00000-0 10000-3 0 2553 2 21655 082.5547 307.8073 0013972 148.3234 211.8708 13.17031621972906 MET-2/21 1 22782U 93055A 11313.74961160 .00000010 00000-0 -44203-5 0 02539 2 22782 082.5509 207.3899 0023726 053.0766 307.2594 13.83668243918683 OKEAN-4 1 23317U 94066A 11313.95734696 .00002437 00000-0 29368-3 0 07556 2 23317 082.5396 236.9983 0022257 003.4734 356.6630 14.83315585922151 NOAA-14 1 23455U 94089A 11313.96191722 .00000161 00000-0 10812-3 0 06917 2 23455 098.8449 035.0871 0008692 223.8517 136.1964 14.13847880869670 NOAA-15 1 25338U 98030A 11313.72677295 .00000247 00000-0 12441-3 0 00152 2 25338 098.6699 297.9891 0011217 033.8715 326.3178 14.24978433701456 RESURS 1 25394U 98043A 11313.95285196 .00000116 00000-0 67844-4 0 09554 2 25394 098.3056 308.9969 0001605 131.6526 228.4792 14.24251937693051 FENGYUN1 1 25730U 99025A 11313.91005755 .00002125 00000-0 12484-2 0 4652 2 25730 098.8292 272.0103 0022733 271.6667 088.1894 14.09021356643589 OKEAN-0 1 25860U 99039A 11313.99228848 .00001120 00000-0 17811-3 0 04833 2 25860 097.9047 276.5937 0000556 079.4737 280.6534 14.73927997662135 NOAA-16 1 26536U 00055A 11313.77113698 .00000150 00000-0 10567-3 0 04963 2 26536 099.1266 347.1704 0010439 347.6606 012.4301 14.12665599573916 NOAA-17 1 27453U 02032A 11313.73355991 .00000153 00000-0 84091-4 0 04809 2 27453 098.3636 346.6438 0012709 083.1426 277.1199 14.24341701487377 NOAA-18 1 28654U 05018A 11313.76962146 .00000519 00000-0 31075-3 0 09577 2 28654 099.0154 265.4022 0014979 057.0072 303.2520 14.11547208333464 NOAA-19 1 33591U 09005A 11313.79907159 .00000388 00000-0 23932-3 0 01488 2 33591 098.8408 251.5910 0013367 285.9054 074.0642 14.11237486141923 HUBBLE 1 20580U 90037B 11313.95063566 .00002986 00000-0 21124-3 0 8844 2 20580 028.4689 144.0809 0003298 231.7151 128.3185 15.01768669981580 ISS 1 25544U 98067A 11314.94560883 .00028742 00000-0 35067-3 0 4096 2 25544 051.6398 142.1044 0021799 044.4356 069.1254 15.59947707743829 CO-58 1 28895U 05043F 11313.68325273 .00001531 00000-0 32548-3 0 197 2 28895 097.9438 184.2735 0018906 122.2785 238.0273 14.60282315321479 FALCON 1 30776U 07006E 11314.78938704 .00007638 00000-0 52131-3 0 2129 2 30776 035.4303 175.1458 0003056 298.2448 061.7972 15.05594164257146 MAST 1 31126U 07012K 11313.94739849 .00001102 00000-0 25689-3 0 03121 2 31126 097.8870 332.8718 0095311 076.7329 284.4478 14.53879137242260 CAPE1 1 31130U 07012P 11313.86140822 .00001127 00000-0 26725-3 0 03189 2 31130 097.8914 329.3589 0103365 088.8070 272.4970 14.52561091241783 COMPASS 1 32787U 08021E 11314.66390859 .00004433 00000-0 55114-3 0 1416 2 32787 097.8332 015.6477 0016592 060.2658 300.0223 14.82951681191265 AAUSAT2 1 32788U 08021F 11314.74284856 .00005220 00000-0 64429-3 0 1329 2 32788 097.8343 015.9991 0016326 061.5381 298.7501 14.83182836191298 DO-64 1 32789U 08021G 11313.75141274 .00007793 00000-0 94068-3 0 01482 2 32789 097.8426 016.3398 0015913 061.4040 298.8783 14.83959166191166 CO-66 1 32791U 08021J 11313.83663712 .00003461 00000-0 43592-3 0 01372 2 32791 097.8354 014.7227 0017039 062.4609 297.8314 14.82546897191087 RS-30 1 32953U 08025A 11314.63712874 .00000010 00000-0 00000 0 0 2459 2 32953 082.5010 071.6643 0019655 068.9842 291.3338 12.43016869157282 TACSAT-3 1 35001U 09028A 11313.61485440 .00076419 00000-0 98626-3 0 07572 2 35001 040.4523 005.6956 0012343 207.9902 152.0257 15.57874196139684 PHARMSAT 1 35002U 09028B 11313.54875955 .00055006 00000-0 77982-3 0 07008 2 35002 040.4708 005.4292 0016065 225.9561 133.9933 15.55404600139683 HAWKSAT1 1 35003U 09028C 11276.79285837 .02274821 58283-2 19360-2 0 8114 2 35003 040.4398 174.3672 0011414 274.3918 085.3844 16.13812532134570 CP6 1 35004U 09028D 11247.64656856 .16152067 73217-5 10011-2 0 7842 2 35004 040.4403 342.9642 0002956 038.0069 322.2231 16.41039951130139 METEOR-M 1 35865U 09049A 11314.73442572 .00000028 00000-0 32758-4 0 8878 2 35865 098.6881 007.8219 0002539 347.3117 012.7995 14.21845419111411 RS-38 1 35869U 09049E 11314.71602121 .00000087 00000-0 59266-4 0 8685 2 35869 098.6849 007.8290 0004520 337.9101 022.1878 14.22032134111427 ARISSAT1 1 37772U 98067CK 11314.89899601 .00180624 00000-0 11624-2 0 3032 2 37772 051.6326 138.6818 0003114 085.0349 065.2295 15.75099869 15446 SRMSAT 1 37839U 11058B 11314.89054292 .00000619 00000-0 19019-3 0 264 2 37839 019.9635 246.7055 0018985 328.1249 031.8008 14.11985316 4210 JUGNU 1 37841U 11058D 11314.85979429 .00000264 00000-0 00000 0 0 241 2 37841 019.9719 247.4841 0012391 298.8583 061.0597 14.10082857 4198 /EX
participants (1)
-
Ray Hoad